CAPE
0 0 0 0 0 0 0 0 0 0 0 0 0 0 0 0 0 0 0 0 0 0 0 0 0 0 0 0 0 2 0 0 0 0 0 0 0 0 0 0 0 0 0 0
0 0 0 0 0 0 0 0 0 0 0 0 0 0 0 0 0 0 0 0 0 0 0 0 0 0 0 0 0 0 0 0 0 0 0 0 0 0 0 0 0 0 0 0
1 0 0 0 0 0 0 0 0 0 0 0 0 0 0 0 0 0 0 0 0 0 0 0 0 0 0 0 0 0 0 0 0 0 0 0 0 0 0 0 0 0 0 0
0 0 0 0 0 0 0 0 0 0 0 0 0 0 0 0 0 0 0 0 0 0 0 0 0 0 0 0 0 0 0 0 0 0 0 0 0 0 0 0 0 0 0 0
0 0 0 0 0 0 0 0 0 0 0 0 0 0 0 0 0 0 0 0 0 0 0 0 0 0 0 0 0 0 0 0 0 0 0 0 0 0 0 0 0 0 0 0
0 0 0 0 0 0 0 0 0 0 0 0 0 0 0 0 0 0 0 0 0 0 0 0 0 0 0 0 0 0 0 0 0 0 0 0 0 0 0 0 0 0 0 0
0 0 0 0 0 0 0 0 0 0 0 0 0 0 0 0 0 0 0 0 0 0 0 0 0 0 0 0 0 0 0 0 0 0 0 0 0 0 0 0 0 0 0 0
0 0 0 0 0 0 0 0 0 0 0 0 0 0 0 0 0 0 0 0 0 0 0 0 0 0 0 0 0 0 0 0 0 0 0 0 0 0 0 0 0 0 0 0
2 1 0 0 0 0 0 0 0 0 0 0 0 0 0 0 0 0 0 0 0 0 0 0 0 0 0 0 0 0 0 0 0 0 0 0 0 0 0 0 0 0 0 0
8 1 0 0 0 0 0 0 0 0 0 0 0 0 0 0 0 0 0 0 0 0 0 0 0 0 0 0 0 0 0 0 0 0 0 0 0 0 0 0 0 0 0 0
14 4 1 0 0 0 0 0 0 0 0 0 0 0 0 0 0 0 0 0 0 0 0 0 0 0 0 0 0 0 0 0 0 0 0 0 0 0 0 0 0 0 0 0
9 11 4 0 0 0 0 0 0 0 0 0 0 0 0 0 0 0 0 0 0 0 0 0 0 0 0 0 0 0 0 0 0 0 0 0 0 0 0 0 0 0 0 0
6 10 9 2 0 0 0 0 0 0 0 0 0 0 0 0 0 0 0 0 0 0 0 0 0 0 0 0 0 0 0 0 0 0 0 0 0 0 0 0 0 0 0 0
5 9 11 6 0 0 0 0 0 0 0 0 0 0 0 0 0 0 0 0 0 0 0 0 0 0 0 0 0 0 0 0 0 0 0 0 0 0 0 0 0 0 0 0
2 4 7 9 0 0 0 0 0 0 0 0 0 0 0 0 0 0 0 0 0 0 0 0 0 0 0 0 0 0 0 0 0 0 0 0 0 0 0 0 0 0 0 0
2 1 8 11 0 0 0 0 0 0 0 0 0 0 0 0 0 0 0 0 0 0 0 0 0 0 0 0 0 0 0 0 0 0 0 0 0 0 0 0 0 0 0 0
2 7 6 16 0 0 0 0 0 0 0 0 0 0 0 0 0 0 0 0 0 0 0 0 0 0 0 0 0 0 0 0 0 0 0 0 0 0 0 0 0 0 0 0
2 7 6 19 0 0 0 0 0 0 0 0 0 0 0 0 0 0 0 0 0 0 0 0 0 0 0 0 0 0 0 0 0 0 0 0 0 0 0 0 0 0 0 0
0 3 7 1 0 0 0 0 0 0 0 0 0 0 0 0 0 0 0 0 0 0 0 0 0 0 0 0 0 0 0 0 0 0 0 0 0 0 0 0 0 0 0 0
1 0 3 0 0 0 0 0 0 0 0 0 0 0 0 0 0 0 0 0 0 0 0 0 0 0 0 0 0 0 0 0 0 0 0 0 0 0 0 0 0 0 0 0
2 1 0 1 0 0 0 0 0 0 0 0 0 0 0 0 0 0 0 0 0 0 0 0 0 0 0 0 0 0 0 0 0 0 0 0 0 0 0 0 0 0 0 0
3 1 0 0 1 0 0 0 0 0 0 0 0 0 0 0 0 0 0 0 0 0 0 0 0 0 0 0 0 0 0 0 0 0 0 0 0 0 0 0 0 0 0 0
3 0 0 0 0 0 0 0 0 0 0 0 0 0 0 0 0 0 0 0 0 0 2 0 0 0 0 0 0 0 0 0 0 0 0 0 0 0 0 0 0 0 0 0
0 0 0 0 0 0 0 0 0 0 0 0 0 0 0 0 0 0 0 0 0 0 0 0 0 0 0 0 0 0 0 0 0 0 0 0 0 0 0 0 0 0 0 0
0 2 0 0 0 0 0 0 0 0 0 0 0 0 0 0 0 0 0 0 0 0 0 0 0 0 0 0 0 0 0 0 0 0 0 0 0 0 0 0 0 0 0 0
0 0 0 0 0 0 0 0 0 0 0 0 0 0 0 0 0 0 0 0 0 0 0 0 0 0 0 0 0 0 0 0 0 0 0 0 0 0 0 0 0 0 0 0
1 0 0 0 0 0 0 0 0 0 0 0 0 0 0 0 0 0 0 0 0 0 0 0 0 0 0 0 0 0 0 0 0 0 0 0 0 0 0 0 0 0 0 0
CIN
0 0 0 0 0 0 0 0 0 0 0 0 0 0 0 0 0 0 0 0 0 0 0 0 0 0 0 0 0 -28 0 0 0 0 0 0 0 0 0 0 0 0 0 0
0 0 0 0 0 0 0 0 0 0 0 0 0 0 0 0 0 0 0 0 0 0 0 0 0 0 0 0 0 0 0 0 0 0 0 0 0 0 0 0 0 0 0 0
0 0 0 0 0 0 0 0 0 0 0 0 0 0 0 0 0 0 0 0 0 0 0 0 0 0 0 0 0 0 0 0 0 0 0 0 0 0 0 0 0 0 0 0
0 0 0 0 0 0 0 0 0 0 0 0 0 0 0 0 0 0 0 0 0 0 0 0 0 0 0 0 0 0 0 0 0 0 0 0 0 0 0 0 0 0 0 0
0 0 0 0 0 0 0 0 0 0 0 0 0 0 0 0 0 0 0 0 0 0 0 0 0 0 0 0 0 0 0 0 0 0 0 0 0 0 0 0 0 0 0 0
0 0 0 0 0 0 0 0 0 0 0 0 0 0 0 0 0 0 0 0 0 0 0 0 0 0 0 0 0 0 0 0 0 0 0 0 0 0 0 0 0 0 0 0
0 0 0 0 0 0 0 0 0 0 0 0 0 0 0 0 0 0 0 0 0 0 0 0 0 0 0 0 0 0 0 0 0 0 0 0 0 0 0 0 0 0 0 0
-1 0 0 0 0 0 0 0 0 0 0 0 0 0 0 0 0 0 0 0 0 0 0 0 0 0 0 0 0 0 0 0 0 0 0 0 0 0 0 0 0 0 0 0
-8 -1 0 0 0 0 0 0 0 0 0 0 0 0 0 0 0 0 0 0 0 0 0 0 0 0 0 0 0 0 0 0 0 0 0 0 0 0 0 0 0 0 0 0
-12 -5 -2 0 0 0 0 0 0 0 0 0 0 0 0 0 0 0 0 0 0 0 0 0 0 0 0 0 0 0 0 0 0 0 0 0 0 0 0 0 0 0 0 0
-10 -13 -4 0 0 0 0 0 0 0 0 0 0 0 0 0 0 0 0 0 0 0 0 0 0 0 0 0 0 0 0 0 0 0 0 0 0 0 0 0 0 0 0 0
-14 -13 -15 0 0 0 0 0 0 0 0 0 0 0 0 0 0 0 0 0 0 0 0 0 0 0 0 0 0 0 0 0 0 0 0 0 0 0 0 0 0 0 0 0
-11 -9 -17 -19 0 0 0 0 0 0 0 0 0 0 0 0 0 0 0 0 0 0 0 0 0 0 0 0 0 0 0 0 0 0 0 0 0 0 0 0 0 0 0 0
-8 -6 -10 -22 0 0 0 0 0 0 0 0 0 0 0 0 0 0 0 0 0 0 0 0 0 0 0 0 0 0 0 0 0 0 0 0 0 0 0 0 0 0 0 0
-7 -6 -8 -14 -11 0 0 0 0 0 0 0 0 0 0 0 0 0 0 0 0 0 0 0 0 0 0 0 0 0 0 0 0 0 0 0 0 0 0 0 0 0 0 0
-5 -5 -4 -11 0 0 0 0 0 0 0 0 0 0 0 0 0 0 0 0 0 0 0 0 0 0 0 0 0 0 0 0 0 0 0 0 0 0 0 0 0 0 0 0
-1 -1 -3 -6 -21 0 0 0 0 0 0 0 0 0 0 0 0 0 0 0 0 0 0 0 0 0 0 0 0 0 0 0 0 0 0 0 0 0 0 0 0 0 0 0
0 0 -1 -1 0 0 0 0 0 0 0 0 0 0 0 0 0 0 0 0 0 0 0 0 0 0 0 0 0 0 0 0 0 0 0 0 0 0 0 0 0 0 0 0
0 0 -1 0 0 0 0 0 0 0 0 0 0 0 0 0 0 0 0 0 0 0 0 0 0 0 0 0 0 0 0 0 0 0 0 0 0 0 0 0 0 0 0 0
0 0 -4 0 0 0 0 0 0 0 0 0 0 0 0 0 0 0 0 0 0 0 0 0 0 0 0 0 0 0 0 0 0 0 0 0 0 0 0 0 0 0 0 0
-1 -1 0 0 0 0 0 0 0 0 0 0 0 0 0 0 0 0 0 0 0 0 0 0 0 0 0 0 0 0 0 0 0 0 0 0 0 0 0 0 0 0 0 0
-2 0 0 0 0 0 0 0 0 0 0 0 0 0 0 0 0 0 0 0 0 0 0 0 0 0 0 0 0 0 0 0 0 0 0 0 0 0 0 0 0 0 0 0
-6 0 0 0 0 0 0 0 0 0 0 0 0 0 0 0 0 0 0 0 0 0 0 0 0 0 0 0 0 0 0 0 0 0 0 0 0 0 0 0 0 0 0 0
0 -1 0 0 0 0 0 0 0 0 0 0 0 0 0 0 0 0 0 0 0 0 0 0 0 0 0 0 0 0 0 0 0 0 0 0 0 0 0 0 0 0 0 0
-10 -6 0 0 0 0 0 0 0 0 0 0 0 0 0 0 0 0 0 0 0 0 0 0 0 0 0 0 0 0 0 0 0 0 0 0 0 0 0 0 0 0 0 0
0 0 0 0 0 0 0 0 0 0 0 0 0 0 0 0 0 0 0 0 0 0 0 0 0 0 0 0 0 0 0 0 0 0 0 0 0 0 0 0 0 0 0 0
-3 0 0 0 0 0 0 0 0 0 0 0 0 0 0 0 0 0 0 0 0 0 0 0 0 0 0 0 0 0 0 0 0 0 0 0 0 0 0 0 0 0 0 0
Wind_Speed
26 27 28 28 24 19 17 17 18 16 17 19 21 22 20 19 18 17 17 18 19 17 15 17 16 18 18 21 20 16 19 17 22 24 20 20 21 26 25 28 27 23 24 25
25 26 27 28 26 20 17 17 17 17 16 18 20 19 19 19 18 17 17 18 18 18 11 14 17 19 16 16 17 18 17 17 20 23 23 22 27 26 25 21 21 26 25 23
24 25 26 28 27 19 17 17 17 16 17 18 19 19 18 19 18 17 16 17 17 17 16 13 20 19 19 19 20 19 18 14 20 25 23 21 27 26 26 26 28 25 25 20
23 24 25 27 27 18 17 18 17 16 16 16 17 17 18 18 18 17 17 17 16 16 17 18 20 20 20 20 19 20 21 19 19 19 20 21 24 26 27 30 27 29 25 22
22 23 24 26 26 17 18 17 17 17 17 16 16 15 16 17 17 17 17 18 16 16 19 19 22 21 21 20 20 20 18 22 23 21 21 22 26 27 28 29 28 29 26 27
21 22 23 24 24 17 17 17 17 17 16 16 16 15 15 15 18 16 17 18 19 20 19 18 19 20 21 19 22 21 20 21 23 23 21 23 27 33 31 27 28 26 29 26
20 21 21 22 23 19 17 17 16 16 16 16 15 15 15 15 15 16 16 17 18 19 21 21 19 16 17 18 17 20 21 21 20 22 21 23 23 22 26 34 31 32 28 23
19 20 20 20 21 19 17 16 15 16 16 16 16 16 16 17 16 16 17 16 17 19 19 18 18 18 18 19 18 18 20 22 21 23 25 23 24 25 26 26 30 39 39 23
17 18 19 19 20 19 15 17 16 16 16 14 16 15 14 15 15 15 15 16 17 18 17 18 18 19 19 19 19 20 19 20 22 21 22 23 20 20 19 20 30 25 14 13
18 19 18 19 20 19 15 16 16 15 15 14 14 15 14 14 14 14 15 15 15 16 17 17 17 17 18 18 19 20 23 22 24 24 22 21 23 17 13 22 22 18 10 5
21 19 18 17 18 19 16 15 16 16 15 14 15 15 14 14 14 13 13 14 13 16 16 16 16 17 18 17 18 19 21 22 21 22 21 20 14 13 21 20 19 15 10 5
22 19 17 17 17 18 17 17 16 17 16 15 15 14 14 15 15 15 11 14 12 12 13 16 16 16 16 16 16 20 18 20 19 21 20 20 4 20 20 18 18 15 10 10
23 20 20 17 17 17 18 18 17 17 18 19 17 17 15 14 16 14 13 14 13 13 14 12 13 9 11 11 12 9 11 7 15 17 13 13 6 14 19 15 15 12 11 10
23 19 18 17 17 17 18 19 17 18 18 21 20 17 16 17 17 14 13 14 14 13 13 14 15 16 11 12 15 9 10 7 5 10 27 26 22 14 15 14 14 12 12 13
22 20 18 16 15 16 17 19 19 18 19 19 18 17 17 17 15 14 15 15 13 13 15 14 15 16 15 19 20 8 6 7 7 18 15 17 19 21 8 8 9 10 11 13
20 19 16 15 14 14 18 24 20 17 17 20 22 21 21 20 17 15 16 16 16 15 15 17 17 18 16 16 18 17 6 11 13 20 20 18 22 20 13 11 11 12 13 13
20 19 16 15 12 14 18 21 20 13 15 20 21 22 21 19 18 17 16 15 17 19 19 19 19 18 15 18 20 21 18 18 16 17 17 20 18 19 13 13 12 11 12 12
22 19 17 15 13 15 19 16 12 14 17 20 22 21 19 15 17 17 17 15 17 19 20 21 21 19 17 20 17 20 22 20 18 16 19 20 17 15 14 12 12 12 13 14
22 18 12 15 19 21 19 13 15 18 20 23 22 22 23 16 18 18 19 18 19 19 19 21 20 20 20 21 23 22 18 19 18 17 19 18 16 15 14 13 13 14 15 16
20 14 18 24 21 8 8 17 21 23 23 23 26 20 21 16 18 19 18 20 21 23 21 19 22 26 23 24 22 20 21 16 15 18 20 18 16 14 13 13 13 14 15 17
20 20 23 17 9 15 18 24 25 23 27 24 24 20 20 17 20 19 20 21 22 27 24 24 27 30 26 22 21 20 18 17 15 18 18 14 12 11 12 13 14 15 16 19
18 15 15 15 19 20 23 27 25 26 28 21 19 18 16 15 15 19 19 23 23 27 21 25 30 27 19 18 18 18 14 11 11 13 12 11 10 11 12 13 15 16 18 21
19 21 21 22 22 30 33 35 33 28 24 20 15 14 14 14 15 19 19 23 26 21 27 30 29 26 20 18 17 16 12 9 9 10 9 9 10 11 13 15 17 19 22 25
28 29 30 30 28 34 34 33 30 25 21 15 12 14 17 16 16 18 23 22 21 27 31 32 27 21 16 14 13 11 9 8 7 7 8 9 11 13 15 18 20 23 26 28
30 27 35 34 29 27 27 28 25 22 15 11 14 16 17 17 19 19 20 24 29 27 30 27 24 17 13 11 9 7 6 6 7 8 9 11 14 16 19 21 23 24 26 29
29 31 34 32 32 34 32 28 26 19 15 14 18 20 23 25 22 24 26 28 32 30 26 23 20 14 10 7 5 4 5 6 7 9 12 14 16 18 21 23 24 27 29 30
32 38 35 34 31 29 27 29 30 22 22 26 22 27 26 18 27 32 28 32 30 26 23 19 15 11 8 6 4 4 6 8 10 13 15 17 19 20 22 25 28 29 30 31
Wind_Direction
334 346 358 10 26 43 57 62 61 76 86 71 73 76 86 94 106 113 121 133 127 158 185 183 187 205 213 214 216 232 235 236 224 227 239 242 241 235 239 237 242 251 254 259
324 330 347 358 17 40 56 58 65 76 80 73 74 83 88 93 100 112 124 123 128 114 295 219 167 197 217 228 234 227 234 236 222 229 238 242 237 240 240 249 255 250 253 263
314 322 337 347 0 40 55 57 57 72 76 77 79 82 89 91 100 107 120 129 131 144 195 237 166 191 208 223 203 224 226 246 231 226 233 238 235 240 241 246 247 252 257 270
305 313 332 344 339 33 55 47 56 68 72 80 85 86 90 96 98 107 113 124 134 148 155 176 189 188 182 204 209 214 212 235 237 237 239 241 243 244 243 244 252 253 263 269
304 311 325 335 338 33 34 44 53 58 71 84 87 95 97 99 104 109 113 118 131 148 144 162 161 174 180 190 197 204 219 217 222 238 242 246 246 247 248 249 253 260 267 270
301 308 320 332 336 16 19 38 50 53 61 74 83 94 105 106 101 110 115 120 124 129 142 156 164 173 176 176 184 199 204 201 207 228 242 247 250 239 243 251 253 260 262 272
299 306 314 328 334 349 10 23 40 40 50 62 81 88 99 111 112 110 120 122 129 136 134 141 157 176 173 176 197 192 188 197 206 205 220 236 239 244 243 240 252 250 263 277
295 303 309 321 329 334 352 9 22 28 36 38 56 73 85 93 95 116 113 120 130 140 146 152 161 170 174 186 199 204 197 193 197 194 199 225 230 232 235 245 251 227 242 273
291 296 305 310 320 329 341 350 7 12 19 40 24 48 76 94 109 126 133 109 124 129 146 147 147 153 165 171 186 209 214 211 199 196 196 195 231 247 260 263 251 264 273 271
281 288 298 305 306 317 334 337 353 358 2 23 26 17 32 42 62 91 118 111 121 119 153 157 153 154 164 160 165 174 193 207 192 199 207 224 241 267 286 245 262 295 293 280
272 280 290 303 306 308 318 327 335 342 345 358 1 3 7 355 8 51 62 62 117 129 151 155 161 162 171 176 175 171 163 164 176 188 191 204 286 289 246 275 300 308 312 314
268 274 287 296 304 306 313 308 323 329 330 342 352 358 360 344 345 342 15 356 30 74 86 157 156 156 153 161 173 201 171 179 187 172 197 253 77 282 287 309 312 318 324 316
265 272 278 288 299 301 304 304 312 319 317 320 329 325 337 342 330 342 342 336 339 340 330 349 350 96 56 97 153 102 159 87 181 296 338 202 170 321 312 324 325 329 328 330
264 268 274 280 290 300 299 299 305 305 310 302 308 324 325 327 325 325 333 341 338 337 334 332 324 322 343 348 332 1 1 29 32 326 245 304 313 323 322 320 322 324 325 325
266 265 269 278 288 297 301 297 297 300 298 303 308 318 318 320 325 323 318 324 338 338 326 332 329 328 329 317 314 342 6 360 352 324 335 329 327 324 335 328 324 324 324 325
263 270 270 274 282 292 296 287 292 295 298 297 296 299 301 308 318 319 313 308 314 321 330 318 320 318 325 326 319 325 18 345 337 322 326 329 323 330 334 327 325 325 325 326
260 266 269 272 277 288 285 288 299 301 301 294 298 296 298 304 307 310 315 317 311 306 307 310 314 318 321 314 311 323 329 326 327 327 331 327 331 330 335 332 333 336 338 337
261 260 265 269 271 286 285 293 304 303 300 297 292 295 297 307 305 307 312 315 311 309 304 307 307 313 313 310 314 317 318 323 326 329 326 326 334 337 335 336 335 332 331 332
276 254 254 274 273 271 285 293 293 296 292 288 289 288 292 298 298 302 305 307 306 311 306 304 307 304 301 310 312 314 316 318 321 323 325 328 328 330 332 332 330 327 327 329
275 250 258 262 269 282 296 293 284 283 283 284 283 292 289 296 295 297 302 305 302 303 306 312 302 299 300 303 308 312 313 310 316 317 318 321 321 323 326 327 330 329 329 330
262 261 258 272 259 275 279 273 272 278 280 283 284 276 282 293 290 293 298 301 305 300 302 302 304 304 308 313 312 313 307 307 308 315 320 320 324 325 328 330 332 333 333 331
261 267 262 260 267 269 266 265 271 272 275 282 287 287 284 292 301 296 299 297 301 297 310 305 303 314 319 321 322 325 325 321 319 325 329 334 337 338 339 338 336 336 334 332
261 268 259 256 259 256 255 256 262 267 277 282 288 284 289 296 298 297 297 293 294 308 300 300 306 313 316 319 324 329 336 339 339 341 347 348 346 346 342 339 337 333 329 328
251 251 254 251 257 255 256 262 264 270 278 271 268 280 289 293 286 294 291 294 300 297 299 302 311 312 318 321 326 331 333 342 351 355 356 354 349 342 338 334 331 328 326 327
253 248 251 252 255 265 270 266 268 274 270 254 268 285 289 286 286 289 292 292 292 296 303 309 316 320 318 319 324 332 343 350 352 353 349 343 338 334 332 331 330 330 329 328
256 254 251 256 260 259 263 269 268 269 256 264 276 277 277 276 279 281 281 287 290 302 305 308 318 319 317 315 318 327 343 347 346 341 337 335 333 331 331 331 330 329 329 329
256 254 252 254 260 265 268 266 266 262 251 262 271 269 270 279 277 276 281 285 298 304 304 308 309 307 304 302 303 314 328 329 330 329 329 329 331 332 330 328 329 330 329 328